Regional Weather Roundup
Issued by NWS Upton, NY

Current Version | Previous Version | Graphics & Text | Print | Product List | Glossary Off
Versions: 1 2 3 4 5 6 7 8 9 10 11 12 13 14 15 16 17 18 19 20 21 22 23 24 25 26 27 28 29 30 31 32 33 34 35 36 37 38 39 40 41 42 43 44

000
ASUS41 KOKX 270805
RWROKX

REGIONAL WEATHER ROUNDUP
NATIONAL WEATHER SERVICE NEW YORK NY
300 AM EST SAT DEC 27 2014

NOTE: "FAIR" INDICATES FEW OR NO CLOUDS BELOW 12,000 FEET WITH NO
SIGNIFICANT WEATHER AND/OR OBSTRUCTIONS TO VISIBILITY.

NYZ071-072-176-178-NJZ106-104-270900-
NEW YORK CITY METRO AREA


CITY           SKY/WX    TMP DP  RH WIND       PRES   REMARKS
CENTRAL PARK   PTCLDY    45  29  53 CALM      30.23R
LAGUARDIA APRT PTCLDY    44  31  60 NW5       30.21R
KENNEDY INTL   PTCLDY    42  31  64 W7        30.23R
NEWARK/LIBERTY PTCLDY    39  30  70 CALM      30.21F
BRNX BOT. GARD   N/A     43  32  65 W6        30.21S
TETERBORO      PTCLDY    31  29  92 CALM      30.20S
$$

NYZ177-179-078>081-270900-
LONG ISLAND NEW YORK

CITY           SKY/WX    TMP DP  RH WIND       PRES   REMARKS
FARMINGDALE    CLEAR     36  29  75 W5        30.21R WCI  32
ISLIP          CLEAR     31  27  85 CALM      30.18S
SHIRLEY        CLEAR     31  26  82 CALM      30.20S
WESTHAMPTON    CLEAR     24  19  81 CALM      30.21F
MONTAUK POINT    N/A     43  35  73 W6        30.20R
$$

NYZ052-065-067-270900-
HUDSON VALLEY

CITY           SKY/WX    TMP DP  RH WIND       PRES   REMARKS
WHITE PLAINS   CLEAR     39  29  67 W7        30.19R WCI  34
NEWBURGH       NOT AVBL
MONTGOMERY     PTCLDY    30  27  88 S5        30.20R WCI  25
POUGHKEEPSIE   MOCLDY    37  28  70 CALM      30.20S
ALBANY         MOCLDY    25  22  88 CALM      30.19R
$$

NJZ001-105-106-008-010-013-015-019>022-104-270900-
NEW JERSEY

CITY           SKY/WX    TMP DP  RH WIND       PRES   REMARKS
NEWARK/LIBERTY PTCLDY    39  30  70 CALM      30.21F
TETERBORO      PTCLDY    31  29  92 CALM      30.20S
CALDWELL       PTCLDY    32  28  85 S5        30.21F WCI  27
MORRISTOWN     PTCLDY    30  28  93 CALM      30.21S
SOMERVILLE     PTCLDY    27  23  85 CALM      30.21R
SUSSEX         MOCLDY    27  26  96 CALM      30.20S
ANDOVER        NOT AVBL
TRENTON        PTCLDY    38  29  70 W5        30.23R WCI  34
MILLVILLE      PTCLDY    28  25  88 CALM      30.24S
ATLANTIC CITY  CLEAR     33  30  88 CALM      30.25R
WRIGHTSTOWN    PTCLDY    34  30  88 W3        30.22R
TOMS RIVER     PTCLDY    30  28  93 CALM      30.23S
BELMAR         PTCLDY    36  27  69 SW6       30.22R WCI  31
$$

PAZ047>061-062-071-270900-
EASTERN PENNSYLVANIA

CITY           SKY/WX    TMP DP  RH WIND       PRES   REMARKS
PHILADELPHIA   PTCLDY    34  30  85 SW5       30.26R WCI  30
ALLENTOWN      PTCLDY    30  25  81 CALM      30.22S
SCRANTON       CLOUDY    34  29  82 S7        30.19F WCI  28
$$

CTZ002-004>006-009-010-012-RIZ004-006-007-MAZ004-011-015-270900-
SOUTHERN NEW ENGLAND
 IN CT

CITY           SKY/WX    TMP DP  RH WIND       PRES   REMARKS
BRADLEY INTL   MOCLDY    29  25  85 CALM      30.16S
HARTFORD       FOG       26  26 100 SE8       30.18F VSB 1/4 WCI  18
DANBURY        PTCLDY    28  24  85 N3        30.20S
WTRBRY/OXFORD  CLEAR     36  25  64 NW5       30.17F WCI  32
BRIDGEPORT     CLEAR     36  30  79 CALM      30.19F
MERIDEN        CLEAR     26  23  88 CALM      30.18F FOG
NEW HAVEN      CLEAR     31  25  78 N3        30.18F
CHESTER        FAIR      39  30  70 NW3       30.18F
GROTON         CLEAR     29  29 100 CALM      30.18S FOG
WILLIMANTIC    CLEAR     25  22  88 CALM      30.19R

 IN RI

CITY           SKY/WX    TMP DP  RH WIND       PRES   REMARKS
PROVIDENCE     CLEAR     37  28  70 W5        30.17R WCI  33
BLOCK ISLAND   CLEAR     43  32  65 W9        30.18R
WESTERLY       CLEAR     36  31  82 CALM      30.18S

 IN MA

CITY           SKY/WX    TMP DP  RH WIND       PRES   REMARKS
BOSTON         CLEAR     41  29  62 W9        30.15R
WORCESTER      PTCLDY    32  27  81 SW8       30.14R WCI  25
WESTFIELD      CLEAR     29  25  85 CALM      30.16S
PROVINCETOWN   CLEAR     43  34  70 W14       30.14S
NANTUCKET      CLEAR     40  35  83 W7        30.16R
$$

ANZ330-335-338-340-345-350-353-355-270900-
COASTAL MARINE OBSERVATIONS


STATION/POSITION TIME  SKY/WX   TEMP    WIND        PRES    VSBY  WAVE
                                AIR SEA DIR/SP/G                  HT/PER
                 (UTC)          (F)     (DEG/KT/KT) (MB)    (MI)  (FT/S)
NY HARB ENTRANCE 0800            44 45  270/  6/  8 1023.8          2/12
4S FIRE IS       0800               47                N/A           3/17
20S FIRE ISLAND  0700            46 49              1023.3          3/ 4
23SW MTP         0800                                 N/A           4/ 5
HUDSON CANYON    0800            49 54  290/ 16/ 21 1023.3          3/ 5
EXECUTION ROCKS  0800            44 42  250/  6/  8   N/A
WESTERN LI SOUND 0800            43     270/  6/  8   N/A           0
CENTRAL LI SOUND 0800            43 44  290/ 12/ 14   N/A           2/ 4
EASTERN LI SOUND NOT AVBL
ROBBINS REEF     0800            40                 1021.7
$$


>>>>>>>>>>>>>>>>>>>>>>>>>>>> KEY <<<<<<<<<<<<<<<<<<<<<<<<<<<
>                                                          <
>     SKY/WX - SKY CONDITION/PRESENT WEATHER               <
>     TMP    - TEMPERATURE IN FAHRENHEIT                   <
>     DP     - DEWPOINT IN FAHRENHEIT                      <
>     RH     - RELATIVE HUMIDITY IN PERCENT                <
>     WIND   - DIRECTION AND SPEED IN MPH                  <
>     PRES   - MEAN SEA LEVEL PRESSURE IN INCHES OF HG     <
>     WCI    - WIND CHILL INDEX                            <
>     VSB    - VISIBILITY IN MILES                         <
>     HX     - HEAT INDEX                                  <
>     TC     - TEMPERATURE IN CELSIUS                      <
>     VRB    - VARIABLE WIND DIRECTION                     <
>                                                          <
>>>>>>>>>>>>>>>>>>>>>>>>>>>> KEY <<<<<<<<<<<<<<<<<<<<<<<<<<<




USA.gov is the U.S. government's official web portal to all federal, state and local government web resources and services.